| time (UTC) | temp F | wind direction | speed MPH | gust MPH | rain 1hr in | rain 24hr in | rain mn in | humidity % | barometer mb |
| 20260507223535 | 47 | 0.0 | 0.0 | 0.00 | 0.00 | 0.00 | |||
| 20260507222555 | 48 | 0.0 | 0.0 | 0.00 | 0.00 | 0.00 | |||
| 20260507221516 | 48 | 0.0 | 0.0 | 0.00 | 0.00 | 0.00 | |||
| 20260507220516 | 48 | 0.0 | 0.0 | 0.00 | 0.00 | 0.00 | |||
| 20260507215515 | 49 | 0.0 | 0.0 | 0.00 | 0.00 | 0.00 | |||
| 20260507214515 | 49 | 0.0 | 0.0 | 0.00 | 0.00 | 0.00 | |||
| 20260507213635 | 50 | 0.0 | 0.0 | 0.00 | 0.00 | 0.00 | |||
| 20260507212535 | 50 | 0.0 | 0.0 | 0.00 | 0.00 | 0.00 | |||
| 20260507211515 | 50 | 0.0 | 0.0 | 0.00 | 0.00 | 0.00 | |||
| 20260507210515 | 50 | 0.0 | 0.0 | 0.00 | 0.00 | 0.00 | |||
| 20260507205555 | 51 | 0.0 | 0.0 | 0.00 | 0.00 | 0.00 | |||
| 20260507204515 | 51 | 0.0 | 0.0 | 0.00 | 0.00 | 0.00 | |||
| 20260507203515 | 51 | 0.0 | 0.0 | 0.00 | 0.00 | 0.00 | |||
| 20260507202615 | 51 | 0.0 | 0.0 | 0.00 | 0.00 | 0.00 | |||
| 20260507201542 | 51 | 119 | 0.0 | 1.0 | 0.00 | 0.00 | 0.00 | ||
| 20260507200535 | 51 | 103 | 0.0 | 1.0 | 0.00 | 0.00 | 0.00 | ||
| 20260507194515 | 52 | 114 | 0.0 | 2.0 | 0.00 | 0.00 | 0.00 | ||
| 20260507193555 | 52 | 108 | 1.0 | 4.0 | 0.00 | 0.00 | 0.00 | ||
| 20260507192555 | 52 | 93 | 0.0 | 2.0 | 0.00 | 0.00 | 0.00 | ||
| 20260507191515 | 52 | 110 | 0.0 | 2.0 | 0.00 | 0.00 | 0.00 | ||
| 20260507190515 | 52 | 139 | 0.0 | 6.0 | 0.00 | 0.00 | 0.00 | ||
| 20260507185556 | 53 | 103 | 1.0 | 6.0 | 0.00 | 0.00 | 0.00 | ||
| 20260507184515 | 53 | 117 | 1.0 | 6.0 | 0.00 | 0.00 | 0.00 | ||
| 20260507183615 | 53 | 80 | 1.0 | 5.0 | 0.00 | 0.00 | 0.00 | ||
| 20260507182615 | 53 | 93 | 1.0 | 5.0 | 0.00 | 0.00 | 0.00 | ||
| 20260507181515 | 53 | 78 | 2.0 | 6.0 | 0.00 | 0.00 | 0.00 | ||
| 20260507180515 | 53 | 99 | 1.0 | 6.0 | 0.00 | 0.00 | 0.00 | ||
| 20260507175615 | 53 | 126 | 2.0 | 8.0 | 0.00 | 0.00 | 0.00 | ||
| 20260507174617 | 54 | 48 | 2.0 | 6.0 | 0.00 | 0.00 | 0.00 | ||
| 20260507173555 | 55 | 109 | 2.0 | 6.0 | 0.00 | 0.00 | 0.00 | ||
| 20260507172515 | 55 | 124 | 3.0 | 10.0 | 0.00 | 0.00 | 0.00 | ||
| 20260507171516 | 55 | 104 | 2.0 | 5.0 | 0.00 | 0.00 | 0.00 | ||
| 20260507170515 | 55 | 117 | 3.0 | 10.0 | 0.00 | 0.00 | 0.00 | ||
| 20260507165515 | 55 | 105 | 2.0 | 6.0 | 0.00 | 0.00 | 0.00 | ||
| 20260507164515 | 56 | 112 | 2.0 | 7.0 | 0.00 | 0.00 | 0.00 | ||
| 20260507163635 | 56 | 89 | 2.0 | 4.0 | 0.00 | 0.01 | 0.00 | ||
| 20260507162515 | 57 | 122 | 3.0 | 7.0 | 0.00 | 0.02 | 0.00 | ||
| 20260507161515 | 57 | 113 | 2.0 | 6.0 | 0.00 | 0.02 | 0.00 | ||
| 20260507160515 | 57 | 117 | 1.0 | 7.0 | 0.00 | 0.03 | 0.00 | ||
| 20260507155515 | 58 | 122 | 1.0 | 4.0 | 0.00 | 0.03 | 0.00 | ||
| 20260507154515 | 59 | 128 | 2.0 | 7.0 | 0.00 | 0.03 | 0.00 | ||
| 20260507153515 | 60 | 134 | 1.0 | 8.0 | 0.00 | 0.03 | 0.00 | ||
| 20260507152515 | 60 | 135 | 1.0 | 9.0 | 0.00 | 0.03 | 0.00 | ||
| 20260507151615 | 62 | 89 | 1.0 | 7.0 | 0.00 | 0.03 | 0.00 | ||
| 20260507150615 | 62 | 113 | 1.0 | 5.0 | 0.00 | 0.03 | 0.00 | ||
| 20260507145555 | 62 | 135 | 4.0 | 9.0 | 0.00 | 0.03 | 0.00 | ||
| 20260507142535 | 66 | 118 | 4.0 | 10.0 | 0.00 | 0.03 | 0.00 | ||
| 20260507141515 | 66 | 109 | 2.0 | 6.0 | 0.00 | 0.03 | 0.00 | ||
| 20260507140515 | 67 | 119 | 3.0 | 9.0 | 0.00 | 0.03 | 0.00 | ||
| 20260507135635 | 67 | 140 | 4.0 | 9.0 | 0.00 | 0.03 | 0.00 | ||
| 20260507134535 | 65 | 129 | 4.0 | 8.0 | 0.00 | 0.03 | 0.00 | ||
| 20260507133555 | 65 | 97 | 2.0 | 7.0 | 0.00 | 0.03 | 0.00 | ||
| 20260507132559 | 65 | 131 | 3.0 | 9.0 | 0.00 | 0.03 | 0.00 | ||
| 20260507131515 | 65 | 130 | 4.0 | 8.0 | 0.00 | 0.03 | 0.00 | ||
| 20260507130535 | 65 | 128 | 2.0 | 8.0 | 0.00 | 0.03 | 0.00 | ||
| 20260507125635 | 65 | 94 | 2.0 | 7.0 | 0.00 | 0.03 | 0.00 | ||
| 20260507124555 | 64 | 58 | 0.0 | 4.0 | 0.00 | 0.03 | 0.00 | ||
| 20260507123535 | 63 | 138 | 4.0 | 10.0 | 0.00 | 0.03 | 0.00 | ||
| 20260507122537 | 62 | 119 | 2.0 | 6.0 | 0.00 | 0.03 | 0.00 | ||
| 20260507121555 | 63 | 106 | 1.0 | 7.0 | 0.00 | 0.03 | 0.00 | ||
| 20260507120535 | 61 | 144 | 2.0 | 8.0 | 0.00 | 0.03 | 0.00 | ||
| 20260507115535 | 60 | 117 | 2.0 | 8.0 | 0.00 | 0.03 | 0.00 | ||
| 20260507114515 | 60 | 122 | 1.0 | 8.0 | 0.00 | 0.03 | 0.00 | ||
| 20260507113536 | 59 | 117 | 2.0 | 8.0 | 0.00 | 0.03 | 0.00 | ||
| 20260507112535 | 57 | 72 | 1.0 | 4.0 | 0.00 | 0.03 | 0.00 | ||
| 20260507111515 | 56 | 30 | 1.0 | 7.0 | 0.00 | 0.03 | 0.00 | ||
| 20260507110535 | 56 | 42 | 0.0 | 3.0 | 0.00 | 0.03 | 0.00 | ||
| 20260507105535 | 56 | 72 | 0.0 | 1.0 | 0.00 | 0.03 | 0.00 | ||
| 20260507104535 | 56 | 91 | 0.0 | 3.0 | 0.00 | 0.03 | 0.00 | ||
| 20260507103515 | 57 | 0.0 | 0.0 | 0.00 | 0.03 | 0.00 | |||
| 20260507102555 | 57 | 51 | 1.0 | 3.0 | 0.00 | 0.03 | 0.00 | ||
| 20260507101516 | 56 | 127 | 1.0 | 6.0 | 0.00 | 0.03 | 0.00 | ||
| 20260507100515 | 55 | 31 | 2.0 | 5.0 | 0.00 | 0.03 | 0.00 | ||
| 20260507095615 | 54 | 333 | 0.0 | 2.0 | 0.00 | 0.03 | 0.00 | ||
| 20260507094535 | 54 | 24 | 1.0 | 4.0 | 0.00 | 0.03 | 0.00 | ||
| 20260507093516 | 54 | 7 | 1.0 | 6.0 | 0.00 | 0.03 | 0.00 | ||
| 20260507092515 | 54 | 13 | 1.0 | 5.0 | 0.00 | 0.03 | 0.00 | ||
| 20260507091655 | 54 | 12 | 1.0 | 5.0 | 0.00 | 0.03 | 0.00 | ||
| 20260507090615 | 54 | 358 | 1.0 | 4.0 | 0.00 | 0.03 | 0.00 | ||
| 20260507085635 | 54 | 12 | 1.0 | 4.0 | 0.00 | 0.03 | 0.00 | ||
| 20260507084535 | 54 | 32 | 1.0 | 3.0 | 0.00 | 0.03 | 0.00 | ||
| 20260507083515 | 54 | 82 | 1.0 | 5.0 | 0.00 | 0.03 | 0.00 | ||
| 20260507082515 | 53 | 51 | 1.0 | 3.0 | 0.00 | 0.03 | 0.00 | ||
| 20260507081515 | 53 | 96 | 1.0 | 3.0 | 0.00 | 0.03 | 0.00 | ||
| 20260507080555 | 52 | 138 | 1.0 | 4.0 | 0.00 | 0.03 | 0.00 | ||
| 20260507075515 | 51 | 52 | 1.0 | 4.0 | 0.00 | 0.03 | 0.00 | ||
| 20260507074515 | 51 | 0.0 | 0.0 | 0.00 | 0.03 | 0.00 | |||
| 20260507073515 | 51 | 24 | 1.0 | 4.0 | 0.00 | 0.03 | 0.00 | ||
| 20260507072516 | 50 | 16 | 1.0 | 4.0 | 0.00 | 0.03 | 0.00 | ||
| 20260507071555 | 49 | 26 | 2.0 | 5.0 | 0.00 | 0.03 | 0.00 | ||
| 20260507070515 | 48 | 15 | 1.0 | 4.0 | 0.00 | 0.03 | 0.00 | ||
| 20260507065555 | 48 | 14 | 1.0 | 4.0 | 0.00 | 0.03 | 0.00 | ||
| 20260507064535 | 47 | 42 | 0.0 | 2.0 | 0.00 | 0.03 | 0.00 | ||
| 20260507063515 | 47 | 0.0 | 0.0 | 0.00 | 0.03 | 0.00 | |||
| 20260507062555 | 46 | 0.0 | 0.0 | 0.00 | 0.03 | 0.00 | |||
| 20260507061535 | 45 | 23 | 0.0 | 1.0 | 0.00 | 0.03 | 0.00 | ||
| 20260507060515 | 44 | 0.0 | 0.0 | 0.00 | 0.03 | 0.00 | |||
| 20260507055515 | 43 | 0.0 | 0.0 | 0.00 | 0.03 | 0.00 | |||
| 20260507054515 | 42 | 0.0 | 0.0 | 0.00 | 0.03 | 0.00 | |||
| 20260507053515 | 42 | 0.0 | 0.0 | 0.00 | 0.03 | 0.00 | |||
| 20260507052515 | 41 | 0.0 | 0.0 | 0.00 | 0.03 | 0.00 | |||
| 20260507051516 | 41 | 0.0 | 0.0 | 0.00 | 0.03 | 0.00 | |||
| 20260507050515 | 40 | 0.0 | 0.0 | 0.00 | 0.03 | 0.00 | |||
| 20260507045515 | 39 | 0.0 | 0.0 | 0.00 | 0.03 | 0.00 | |||
| 20260507044515 | 39 | 0.0 | 0.0 | 0.00 | 0.03 | 0.00 | |||
| 20260507043515 | 39 | 0.0 | 0.0 | 0.00 | 0.03 | 0.00 | |||
| 20260507042515 | 39 | 0.0 | 0.0 | 0.00 | 0.03 | 0.00 | |||
| 20260507041515 | 40 | 0.0 | 0.0 | 0.00 | 0.03 | 0.00 | |||
| 20260507040555 | 40 | 0.0 | 0.0 | 0.00 | 0.03 | 0.00 | |||
| 20260507035515 | 41 | 0.0 | 0.0 | 0.00 | 0.03 | 0.00 | |||
| 20260507034535 | 41 | 0.0 | 0.0 | 0.00 | 0.03 | 0.00 | |||
| 20260507033516 | 41 | 0.0 | 0.0 | 0.00 | 0.03 | 0.00 | |||
| 20260507032515 | 41 | 0.0 | 0.0 | 0.00 | 0.03 | 0.00 | |||
| 20260507031515 | 41 | 0.0 | 0.0 | 0.00 | 0.03 | 0.00 | |||
| 20260507030515 | 41 | 0.0 | 0.0 | 0.00 | 0.03 | 0.00 | |||
| 20260507025515 | 41 | 0.0 | 0.0 | 0.00 | 0.03 | 0.00 | |||
| 20260507024555 | 41 | 0.0 | 0.0 | 0.00 | 0.03 | 0.00 | |||
| 20260507023535 | 41 | 0.0 | 0.0 | 0.00 | 0.03 | 0.00 | |||
| 20260507022515 | 41 | 0.0 | 0.0 | 0.00 | 0.03 | 0.00 | |||
| 20260507021555 | 41 | 0.0 | 0.0 | 0.00 | 0.03 | 0.00 | |||
| 20260507020515 | 41 | 0.0 | 0.0 | 0.00 | 0.03 | 0.00 | |||
| 20260507015535 | 41 | 0.0 | 0.0 | 0.00 | 0.03 | 0.00 | |||
| 20260507014515 | 42 | 0.0 | 0.0 | 0.00 | 0.03 | 0.00 | |||
| 20260507013515 | 42 | 0.0 | 0.0 | 0.00 | 0.03 | 0.00 | |||
| 20260507012616 | 43 | 0.0 | 0.0 | 0.00 | 0.03 | 0.00 | |||
| 20260507011515 | 43 | 0.0 | 0.0 | 0.00 | 0.03 | 0.00 | |||
| 20260507010515 | 44 | 0.0 | 0.0 | 0.00 | 0.03 | 0.00 | |||
| 20260507005515 | 44 | 0.0 | 0.0 | 0.00 | 0.03 | 0.00 | |||
| 20260507004555 | 44 | 0.0 | 0.0 | 0.00 | 0.03 | 0.00 | |||
| 20260507003516 | 44 | 0.0 | 0.0 | 0.00 | 0.03 | 0.00 | |||
| 20260507002535 | 44 | 0.0 | 0.0 | 0.00 | 0.03 | 0.00 | |||
| 20260507001535 | 45 | 0.0 | 0.0 | 0.00 | 0.03 | 0.00 | |||
| 20260507000615 | 45 | 0.0 | 0.0 | 0.00 | 0.03 | 0.00 | |||
| 20260506235615 | 45 | 0.0 | 0.0 | 0.00 | 0.03 | 0.00 | |||
| 20260506234535 | 45 | 0.0 | 0.0 | 0.00 | 0.03 | 0.00 | |||
| 20260506233555 | 46 | 0.0 | 0.0 | 0.00 | 0.03 | 0.00 | |||
| 20260506232515 | 46 | 0.0 | 0.0 | 0.00 | 0.03 | 0.00 | |||
| 20260506231535 | 46 | 0.0 | 0.0 | 0.00 | 0.03 | 0.00 | |||
| 20260506230555 | 46 | 0.0 | 0.0 | 0.00 | 0.03 | 0.00 | |||
| 20260506225515 | 46 | 0.0 | 0.0 | 0.00 | 0.03 | 0.03 | |||
| 20260506224535 | 46 | 0.0 | 0.0 | 0.00 | 0.03 | 0.03 |